"Pseudo-MPEC" for CLCW2UZ

Created 2024 Dec 4 1:31:27 UT using Find_Orb

Click here for an explanation of pseudo-MPECs

 
 Astrometry: 
     CLCW2UZ*0C2024 11 21.50889312 03 05.893+17 45 43.78   ~BT2H 20.84GVNEOCPG96
     CLCW2UZ 0C2024 11 21.51365612 03 05.400+17 45 49.32   ~BT2H       VNEOCPG96
     CLCW2UZ 0C2024 11 21.51843412 03 04.885+17 45 55.04   ~BT2H 21.00GVNEOCPG96
     CLCW2UZ 0C2024 11 21.52322612 03 04.410+17 46 00.41   ~BT2H 21.32GVNEOCPG96

Station data:
(G96) Mt. Lemmon Survey  (N32.442729 W110.788720)  US/Arizona.  Observer A.
   Zooniverse. 1.5-m reflector + 10K CCD.

Orbital elements:  CLCW2UZ
   Perihelion 2024 Oct 11.53579 +/- 16 TT = 12:51:32 (JD 2460595.03579)
Epoch 2024 Nov 22.0 TT = JDT 2460636.5   Earth MOID: 0.1639   Me: 0.0944
M  15.66293830 +/- 42               (J2000 ecliptic)             AutoNEOCP
n   0.37774601 +/- 0.619            Peri.  358.75118 +/- 37
a   1.89526286 +/- 2.07             Node   354.07823 +/- 38
e   0.7510333 +/- 0.179             Incl.    9.74672 +/- 58
P   2.609/953.003d         H 20.03  G  0.15   U 12.4  SR
q 0.47185720 +/- 0.338    Q 3.31866852 +/- 23.6
From 4 observations 2024 Nov. 21 (20.6 min); mean residual 0".10
Residuals in arcseconds: 
241121 G96  .03+  .02-    241121 G96  .21-  .13+    
241121 G96  .05+  .03-    241121 G96  .12+  .07-    

Ephemerides (geocentric):
Date (UTC) HH   RA             Dec           delta  r     elong  mag " sig PA
---- --------  ------------   ------------  ------ ------ -----  --- --------
2024 12 04 02  11 43 07.679   +21 26 42.52  .57302 1.0958  85.0 21.3  63d 103
2024 12 04 03  11 43 03.542   +21 27 25.49  .57308 1.0963  85.0 21.3  63d 103
2024 12 04 04  11 42 59.402   +21 28 08.46  .57315 1.0969  85.1 21.3  63d 103
2024 12 04 05  11 42 55.258   +21 28 51.44  .57321 1.0975  85.1 21.3  63d 103
2024 12 04 06  11 42 51.112   +21 29 34.43  .57328 1.0980  85.2 21.3  63d 103
2024 12 04 07  11 42 46.962   +21 30 17.43  .57334 1.0986  85.3 21.3  63d 103
2024 12 04 08  11 42 42.809   +21 31 00.43  .57340 1.0991  85.3 21.3  63d 103
2024 12 04 09  11 42 38.653   +21 31 43.44  .57346 1.0997  85.4 21.3  64d 103
2024 12 04 10  11 42 34.493   +21 32 26.46  .57353 1.1003  85.4 21.3  64d 103
2024 12 04 11  11 42 30.331   +21 33 09.49  .57359 1.1008  85.5 21.3  64d 103
2024 12 04 12  11 42 26.165   +21 33 52.52  .57365 1.1014  85.6 21.3  64d 103
2024 12 04 13  11 42 21.995   +21 34 35.57  .57371 1.1019  85.6 21.3  64d 103
2024 12 04 14  11 42 17.823   +21 35 18.62  .57378 1.1025  85.7 21.3  64d 103
2024 12 04 15  11 42 13.647   +21 36 01.68  .57384 1.1030  85.7 21.3  64d 103
2024 12 04 16  11 42 09.467   +21 36 44.75  .57390 1.1036  85.8 21.3  64d 103
2024 12 04 17  11 42 05.285   +21 37 27.82  .57396 1.1042  85.9 21.3  64d 103
2024 12 04 18  11 42 01.098   +21 38 10.91  .57402 1.1047  85.9 21.3  64d 103
2024 12 04 19  11 41 56.909   +21 38 54.00  .57408 1.1053  86.0 21.3  64d 103
2024 12 04 20  11 41 52.716   +21 39 37.10  .57415 1.1058  86.0 21.3  64d 103
2024 12 04 21  11 41 48.520   +21 40 20.21  .57421 1.1064  86.1 21.3  64d 103
2024 12 04 22  11 41 44.320   +21 41 03.33  .57427 1.1069  86.2 21.3  64d 103
2024 12 04 23  11 41 40.117   +21 41 46.46  .57433 1.1075  86.2 21.3  64d 103
2024 12 05 00  11 41 35.910   +21 42 29.60  .57439 1.1081  86.3 21.3  64d 103
2024 12 05 01  11 41 31.700   +21 43 12.74  .57445 1.1086  86.3 21.3  64d 103
2024 12 05 02  11 41 27.486   +21 43 55.90  .57451 1.1092  86.4 21.3  64d 103
2024 12 05 03  11 41 23.269   +21 44 39.06  .57457 1.1097  86.5 21.3  64d 103
2024 12 05 04  11 41 19.048   +21 45 22.23  .57463 1.1103  86.5 21.3  64d 103
2024 12 05 05  11 41 14.824   +21 46 05.42  .57469 1.1108  86.6 21.3  65d 103
2024 12 05 06  11 41 10.596   +21 46 48.61  .57475 1.1114  86.6 21.3  65d 103
2024 12 05 07  11 41 06.364   +21 47 31.81  .57481 1.1120  86.7 21.3  65d 103
2024 12 05 08  11 41 02.129   +21 48 15.02  .57487 1.1125  86.8 21.3  65d 103
2024 12 05 09  11 40 57.890   +21 48 58.24  .57493 1.1131  86.8 21.3  65d 103
2024 12 05 10  11 40 53.648   +21 49 41.47  .57499 1.1136  86.9 21.3  65d 103
2024 12 05 11  11 40 49.401   +21 50 24.71  .57505 1.1142  86.9 21.3  65d 103
2024 12 05 12  11 40 45.152   +21 51 07.96  .57510 1.1147  87.0 21.3  65d 103
2024 12 05 13  11 40 40.898   +21 51 51.22  .57516 1.1153  87.1 21.3  65d 103
2024 12 05 14  11 40 36.641   +21 52 34.49  .57522 1.1159  87.1 21.3  65d 103
2024 12 05 15  11 40 32.380   +21 53 17.77  .57528 1.1164  87.2 21.3  65d 103
2024 12 05 16  11 40 28.115   +21 54 01.06  .57534 1.1170  87.2 21.3  65d 103
2024 12 05 17  11 40 23.847   +21 54 44.36  .57540 1.1175  87.3 21.3  65d 103
2024 12 05 18  11 40 19.575   +21 55 27.67  .57545 1.1181  87.4 21.3  65d 103
2024 12 05 19  11 40 15.299   +21 56 10.99  .57551 1.1186  87.4 21.3  65d 103
2024 12 05 20  11 40 11.019   +21 56 54.32  .57557 1.1192  87.5 21.3  65d 103
2024 12 05 21  11 40 06.735   +21 57 37.66  .57563 1.1197  87.6 21.3  65d 103
2024 12 05 22  11 40 02.448   +21 58 21.01  .57568 1.1203  87.6 21.3  65d 103
2024 12 05 23  11 39 58.157   +21 59 04.37  .57574 1.1209  87.7 21.3  65d 103
2024 12 06 00  11 39 53.862   +21 59 47.74  .57580 1.1214  87.7 21.3  65d 103
2024 12 06 01  11 39 49.562   +22 00 31.13  .57585 1.1220  87.8 21.3  66d 103